Bookmark and Share
Track history (hours):
 

San Aurelio

Last reported at 2014-Apr-20 05:32 UTC. Time now 2014-Apr-20 05:57 UTC.
Position N 37°26' E 126°36'.

Length 186 m; draft 11 m.

Type: Cargo ship. MMSI: 636091534.

NotesDate/timePositionNaut miles runAvg speedWind from/ knotsBaromVisibWave heightAir tempDewpointWater temp
2014-Apr-20 05:32N 37°26' E 126°36'0 0.0
2014-Apr-20 04:32N 37°26' E 126°36'0 0.0
2014-Apr-20 03:32N 37°26' E 126°36'0 0.0
2014-Apr-20 02:32N 37°26' E 126°36'0 0.0
2014-Apr-20 01:32N 37°26' E 126°36'0 0.0
2014-Apr-20 00:32N 37°26' E 126°36'0 0.0
2014-Apr-19 23:32N 37°26' E 126°36'0 0.0
2014-Apr-19 22:32N 37°26' E 126°36'0 0.0
2014-Apr-19 21:32N 37°26' E 126°36'0 0.0
2014-Apr-19 20:29N 37°26' E 126°36'0 0.0
2014-Apr-19 19:32N 37°26' E 126°36'0 0.0
2014-Apr-19 18:32N 37°26' E 126°36'0 0.0
2014-Apr-19 17:29N 37°26' E 126°36'0 0.0
2014-Apr-19 16:32N 37°26' E 126°36'0 0.0
2014-Apr-19 15:29N 37°26' E 126°36'0 0.0
2014-Apr-19 14:32N 37°26' E 126°36'1 0.7
2014-Apr-19 13:33N 37°26' E 126°36'10 9.7
2014-Apr-19 12:33N 37°19' E 126°27'2 0.4
2014-Apr-19 05:34N 37°19' E 126°24'2 1.9
2014-Apr-19 04:33N 37°17' E 126°25'  
2014-Apr-16 13:31N 23°59' E 118°23'1616.4
2014-Apr-16 12:33N 23°49' E 118°10'1816.4
2014-Apr-16 11:27N 23°37' E 117°54'1415.6
2014-Apr-16 10:33N 23°28' E 117°42'2914.3
2014-Apr-16 08:31N 23°09' E 117°19'1514.1
2014-Apr-16 07:26N 23°00' E 117°06'1314.1
2014-Apr-16 06:33N 22°51' E 116°56'16013.1
2014-Apr-15 18:19N 22°15' E 114°07'1312.4
2014-Apr-15 17:15N 22°22' E 113°55'4 5.1
2014-Apr-15 16:33N 22°25' E 113°53'2 1.7
2014-Apr-15 15:04N 22°27' E 113°54'4 0.3
2014-Apr-15 02:34N 22°24' E 113°54'1110.4
2014-Apr-15 01:31N 22°20' E 114°05'2 0.4
2014-Apr-14 19:33N 22°20' E 114°08'92 3.6
2014-Apr-13 18:13N 20°50' E 113°42'810.7
2014-Apr-13 17:28N 20°44' E 113°37'1210.8
2014-Apr-13 16:24N 20°35' E 113°29'  

Dump ship's entire track history

sailing weather and tide predictions

San Aurelio — A8PC9 — position and weather